This is the latest recevied weather packets stored in our database for station/object IZ6UQU-13. If no packets are shown the sender has not sent any weather packets the latest 10 day(s).
| Time | Temp. | Humidity | Pressure | Rain* | Wind** | Luminosity | Snow |
|---|---|---|---|---|---|---|---|
| 1777545004 | 13.89° C | 83% | 959.6 hPa | 0 mm | - | - | - |
| 1777544704 | 13.33° C | 84% | 959.5 hPa | 0 mm | - | - | - |
| 1777544404 | 13.33° C | 83% | 959.5 hPa | 0 mm | - | - | - |
| 1777544104 | 13.33° C | 85% | 959.6 hPa | 0 mm | - | - | - |
| 1777543804 | 13.33° C | 95% | 959.6 hPa | 0 mm | - | - | - |
| 1777543504 | 12.78° C | 98% | 959.8 hPa | 0 mm | - | - | - |
| 1777543204 | 12.22° C | 97% | 959.7 hPa | 0 mm | - | - | - |
| 1777542904 | 11.67° C | 98% | 959.7 hPa | 0 mm | - | - | - |
| 1777542604 | 11.67° C | 98% | 959.7 hPa | 0 mm | - | - | - |
| 1777542304 | 11.11° C | 98% | 959.8 hPa | 0 mm | - | - | - |
| 1777542004 | 11.11° C | 98% | 959.8 hPa | 0 mm | - | - | - |
| 1777541704 | 11.11° C | 98% | 959.7 hPa | 0 mm | - | - | - |
| 1777541404 | 10.56° C | 98% | 959.6 hPa | 0 mm | - | - | - |
| 1777541104 | 10.56° C | 98% | 959.6 hPa | 0 mm | - | - | - |
| 1777540804 | 10.56° C | 97% | 959.7 hPa | 0 mm | - | - | - |
| 1777540504 | 11.11° C | 98% | 959.6 hPa | 0 mm | - | - | - |
| 1777540204 | 11.11° C | 97% | 959.6 hPa | 0 mm | - | - | - |
| 1777539904 | 11.11° C | 98% | 959.6 hPa | 0 mm | - | - | - |
| 1777539604 | 11.11° C | 97% | 959.6 hPa | 0 mm | - | - | - |
| 1777539304 | 11.11° C | 98% | 959.5 hPa | 0 mm | - | - | - |
| 1777539003 | 11.11° C | 97% | 959.5 hPa | 0 mm | - | - | - |
| 1777538703 | 11.11° C | 97% | 959.4 hPa | 0 mm | - | - | - |
| 1777538404 | 11.67° C | 97% | 959.3 hPa | 0 mm | - | - | - |
| 1777538103 | 11.67° C | 98% | 959.3 hPa | 0 mm | - | - | - |
| 1777537804 | 11.67° C | 98% | 959.3 hPa | 0 mm | - | - | - |
* Rain latest hour (hover to see other rain measurements)
** Current wind speed in m/s (hover to see current wind gust speed)